This demonstration page uses our WeatherBlox Daily Observations layout. Learn more.

Left ArrowRight Arrow

39.95238, -75.16362

Hourly Observations for April 22, 2015

Temp ( °F °C ) Dew Point ( °F °C ) Humidity (%) Winds ( mph kmh ) Pressure ( in mb ) Visibility ( mi km ) Precip ( " mm )
12:54 am 00:54 Clear 52 11.1 38 3.3 59 59 SW 5 7 29.81 1009 10 16 0.00 0.00
1:54 am 01:54 Clear 53 11.7 36 2.2 52 52 SSW 5 7 29.80 1009 10 16 0.00 0.00
2:54 am 02:54 Clear 50 10 36 2.2 59 59 Calm 29.79 1009 10 16 0.00 0.00
3:54 am 03:54 Mostly Clear 52 11.1 40 4.4 64 64 SW 5 7 29.78 1009 10 16 0.00 0.00
4:54 am 04:54 Mostly Clear 50 10 40 4.4 68 68 NNW 3 6 29.79 1009 10 16 0.00 0.00
5:54 am 05:54 Partly Cloudy 50 10 37 2.8 61 61 Calm 29.79 1009 10 16 0.00 0.00
6:54 am 06:54 Partly Cloudy 49 9.4 42 5.6 77 77 SSE 6 9 29.78 1009 10 16 0.00 0.00
7:54 am 07:54 Partly Cloudy 54 12.2 43 6.1 67 67 SSE 6 9 29.78 1008 10 16 0.00 0.00
8:54 am 08:54 Mostly Sunny 59 15 40 4.4 49 49 SSW 9 15 29.75 1007 10 16 0.00 0.00
9:54 am 09:54 Partly Cloudy 64 17.8 36 2.2 35 35 SW 12 19 29.72 1007 10 16 0.00 0.00
10:54 am 10:54 Partly Cloudy 68 20 36 2.2 31 31 SSW 15 24 29.69 1005 10 16 0.00 0.00
11:54 am 11:54 Partly Cloudy 69 20.6 34 1.1 27 27 SSW 24 39 29.66 1004 10 16 0.00 0.00
12:54 pm 12:54 Partly Cloudy 72 22.2 35 1.7 26 26 SW 21 33 29.59 1002 10 16 0.00 0.00
1:54 pm 13:54 Cloudy 71 21.7 35 1.7 27 27 SSW 29 46 29.57 1002 10 16 0.00 0.00
2:52 pm 14:52 Cloudy with Light Rain 68 20 36 2 30 30 WSW 33 54 29.62 1003 8 13 0.00 0.00
2:54 pm 14:54 Cloudy with Light Rain 68 20 37 2.8 32 32 WSW 38 61 29.62 1003 8 13 0.00 0.03
2:58 pm 14:58 Cloudy with Light Rain 65 18.3 42 5.6 43 43 W 39 63 29.65 1004 2 3 0.00 0.03
3:06 pm 15:06 Cloudy with Light Rain 57 14 48 9 72 72 W 32 52 29.65 1004 4 6 0.00 0.00
3:09 pm 15:09 Cloudy with Light Rain 57 13.9 49 9.4 74 74 WNW 25 41 29.65 1004 7 11 0.00 0.03
3:21 pm 15:21 Mostly Cloudy with Light Rain 58 14.4 50 10 75 75 WNW 16 26 29.62 1003 10 16 0.00 0.03
3:54 pm 15:54 Cloudy 58 14.4 48 8.9 70 70 NW 14 22 29.62 1003 10 16 0.00 0.03
4:40 pm 16:40 Cloudy with Light Rain 58 14.4 48 8.9 70 70 WNW 15 24 29.65 1004 8 13 0.00 0.03
4:54 pm 16:54 Cloudy with Light Rain 56 13.3 47 8.3 72 72 W 14 22 29.65 1004 10 16 0.00 0.03
5:54 pm 17:54 Cloudy 56 13.3 45 7.2 67 67 WSW 10 17 29.65 1004 10 16 0.00 0.03
6:54 pm 18:54 Mostly Cloudy with Light Rain 55 12.8 43 6.1 64 64 W 17 28 29.67 1005 10 16 0.00 0.03
7:54 pm 19:54 Partly Cloudy 54 12.2 42 5.6 64 64 WSW 14 22 29.69 1006 10 16 0.00 0.03
8:54 pm 20:54 Mostly Clear 54 12.2 40 4.4 59 59 W 15 24 29.71 1006 10 16 0.00 0.00
9:54 pm 21:54 Partly Cloudy 53 11.7 34 1.1 48 48 W 15 24 29.73 1007 10 16 0.00 0.00
10:54 pm 22:54 Partly Cloudy 52 11.1 33 0.6 49 49 NW 22 35 29.73 1007 10 16 0.00 0.00
11:54 pm 23:54 Partly Cloudy 49 9.4 29 -1.7 46 46 NW 14 22 29.75 1008 10 16 0.00 0.00

Powered by AerisWeather